Location: Tauranga
(37.6860°S, 176.1670°E)
Time: 22:29:26
(UTC+13:00)

ISS - Pass Details

Date: 29 January 2019
Orbit: 403 x 411 km, 51.6° (Epoch: 21 February)

Event Time Altitude Azimuth Distance (km) Brightness Sun altitude
Exits shadow 04:40:51 21° 27° (NNE) 983 -2.1 -18.1°
Maximum altitude 04:41:37 23° 49° (NE) 928 -2.0 -18.0°
Drops below altitude 10° 04:44:21 10° 103° (ESE) 1,492 0.0 -17.6°
Sets 04:46:43 0° 118° (ESE) 2,360 1.6 -17.3°
